SCP
0 0 0 0 0 0 0 0 0 0 0 0 0 0 0 0 0 0 0 0 0 0 0 0 0 0 0 0 0 0 0 0 0 0 0 0 0 0 0 0 0 0 0
0 0 0 0 0 0 0 0 0 0 0 0 0 0 0 0 0 0 0 0 0 0 0 0 0 0 0 0 0 0 0 0 0 0 0 0 0 0 0 0 0 0 0
0 0 0 0 0 0 0 0 0 0 0 0 0 0 0 0 0 0 0 0 0 0 0 0 0 0 0 0 0 0 0 0 0 0 0 0 0 0 0 0 0 0 0
0 0 0 0 0 0 0 0 0 0 0 0 0 0 0 0 0 0 0 0 0 0 0 0 0 0 0 0 0 0 0 0 0 0 0 0 0 0 0 0 0 0 0
0 0 0 0 0 0 0 0 0 0 0 0 0 0 0 0 0 0 0 0 0 0 0 0 0 0 0 0 0 0 0 0 0 0 0 0 0 0 0 0 0 0 0
0 0 0 0 0 0 0 0 0 0 0 0 0 0 0 0 0 0 0 0 0 0 0 0 0 0 0 0 0 0 0 0 0 0 0 0 0 0 0 0 0 0 0
0 0 0 0 0 0 0 0 0 0 0 0 0 0 0 0 0 0 0 0 0 0 0 0 0 0 0 0 0 0 0 0 0 0 0 0 0 0 0 0 0 0 0
0 0 0 0 0 0 0 0 0 0 0 0 0 0 0 0 0 0 0 0 0 0 0 0 0 0 0 0 0 0 0 0 0 0 0 0 0 0 0 0 0 0 0
0 0 0 0 0 0 0 0 0 0 0 0 0 0 0 0 0 0 0 0 0 0 0 0 0 0 0 0 0 0 0 0 0 0 0 0 0 0 0 0 0 0 0
0 0 0 0 0 0 0 0 0 0 0 0 0 0 0 0 0 0 0 0 0 0 0 0 0 0 0 0 0 0 0 0 0 0 0 0 0 0 0 0 0 0 0
0 0 0 0 0 0 0 0 0 0 0 0 0 0 0 0 0 0 0 0 0 0 0 0 0 0 0 0 0 0 0 0 0 0 0 0 0 0 0 0 0 0 0
0 0 0 0 0 0 0 0 0 0 0 0 0 0 0 0 0 0 0 0 0 0 0 0 0 0 0 0 0 0 0 0 0 0 0 0 0 0 0 0 0 0 0
0 0 0 0 0 0 0 0 0 0 0 0 0 0 0 0 0 0 0 0 0 0 0 0 0 0 0 0 0 0 0 0 0 0 0 0 0 0 0 0 0 0 0
0 0 0 0 0 0 0 0 0 0 0 0 0 0 0 0 0 0 0 0 0 0 0 0 0 0 0 0 0 0 0 0 0 0 0 0 0 0 0 0 0 0 0
0 0 0 0 0 0 0 0 0 0 0 0 0 0 0 0 0 0 0 0 0 0 0 0 0 0 0 0 0 0 0 0 0 0 0 0 0 0 0 0 0 0 0
0 0 0 0 0 0 0 0 0 0 0 0 0 0 0 0 0 0 0 0 0 0 0 0 0 0 0 0 0 0 0 0 0 0 0 0 0 0 0 0 0 0 0
0 0 0 0 0 0 0 0 0 0 0 0 0 0 0 0 0 0 0 0 0 0 0 0 0 0 0 0 0 0 0 0 0 0 0 0 0 0 0 0 0 0 0
0 0 0 0 0 0 0 0 0 0 0 0 0 0 0 0 0 0 0 0 0 0 0 0 0 0 0 0 0 0 0 0 0 0 0 0 0 0 0 0 0 0 0
0 0 0 0 0 0 0 0 0 0 0 0 0 0 0 0 0 0 0 0 0 0 0 0 0 0 0 0 0 0 0 0 0 0 0 0 0 0 0 0 0 0 0
0 0 0 0 0 0 0 0 0 0 0 0 0 0 0 0 0 0 0 0 0 0 0 0 0 0 0 0 0 0 0 0 0 0 0 0 0 0 0 0 0 0 0
0 0 0 0 0 0 0 0 0 0 0 0 0 0 0 0 0 0 0 0 0 0 0 0 0 0 0 0 0 0 0 0 0 0 0 0 0 0 0 0 0 0 0
0 0 0 0 0 0 0 0 0 0 0 0 0 0 0 0 0 0 0 0 0 0 0 0 0 0 0 0 0 0 0 0 0 0 0 0 0 0 0 0 0 0 0
0 0 0 0 0 0 0 0 0 0 0 0 0 0 0 0 0 0 0 0 0 0 0 0 0 0 0 0 0 0 0 0 0 0 0 0 0 0 0 0 0 0 0
0 0 0 0 0 0 0 0 0 0 0 0 0 0 0 0 0 0 0 0 0 0 0 0 0 0 0 0 0 0 0 0 0 0 0 0 0 0 0 0 0 0 -0
0 0 0 0 0 0 0 0 0 0 0 0 0 0 0 0 0 0 0 0 0 0 0 0 0 0 0 0 0 0 0 0 0 0 0 0 0 0 0 0 0 0 -0
0 0 0 0 0 0 0 0 0 0 0 0 0 0 0 0 0 0 0 0 0 0 0 0 0 0 0 0 0 0 0 0 0 0 0 0 0 0 0 0 0 0 0
Wind_Speed
2 3 3 3 5 6 7 8 8 9 9 9 10 10 10 10 11 11 11 11 11 11 12 13 13 13 14 14 14 14 14 15 15 15 14 14 14 15 15 15 13 10 16
2 2 3 4 6 7 8 8 8 9 9 9 10 10 10 10 10 10 10 11 11 12 12 13 13 13 13 13 13 13 14 14 14 13 12 11 12 14 15 14 13 10 15
1 1 2 5 7 8 8 8 8 8 9 9 9 9 10 9 9 10 10 11 11 11 12 12 13 13 13 13 13 13 13 13 13 12 10 6 8 13 14 14 14 15 15
2 1 1 5 7 8 8 8 8 8 8 8 8 9 9 9 9 9 10 10 11 11 11 12 12 13 13 12 12 12 12 12 12 11 6 5 5 12 14 14 14 15 15
2 1 1 6 7 7 8 8 8 8 8 8 8 8 8 9 9 9 9 10 10 11 11 12 12 12 12 12 12 12 12 12 11 9 6 5 5 11 13 14 14 14 14
3 2 2 6 7 7 8 8 8 8 8 8 8 8 8 8 8 9 9 9 10 10 10 11 11 11 11 12 12 12 12 11 9 6 5 5 5 11 13 14 13 13 14
3 2 2 5 6 7 7 8 8 8 8 8 8 8 8 8 8 8 8 9 9 10 10 11 11 11 11 11 11 11 11 10 7 5 4 4 6 12 12 13 13 13 13
3 3 2 4 5 6 7 8 7 8 8 7 8 8 8 8 8 8 8 8 8 9 10 10 10 11 11 11 11 11 10 9 7 5 4 4 8 11 12 12 11 11 12
3 3 2 2 3 5 6 7 7 7 7 7 8 8 7 8 8 7 8 8 7 8 9 10 10 10 10 11 10 10 10 9 5 4 4 4 8 10 10 10 10 10 11
3 3 2 3 3 3 4 6 7 7 7 7 8 8 8 7 7 7 6 7 7 7 8 9 10 10 10 10 9 9 9 7 4 4 3 4 8 9 9 10 10 10 10
3 2 2 2 3 3 3 4 5 6 6 7 6 7 6 4 4 4 6 7 7 8 8 9 9 9 9 8 8 8 7 3 3 3 2 5 7 8 9 9 9 9 9
1 1 1 2 2 2 2 2 3 3 3 4 4 4 3 3 3 4 6 7 7 7 7 8 9 8 6 4 5 6 3 3 3 2 2 5 6 8 9 9 9 9 10
2 1 1 1 2 2 2 2 2 2 2 3 4 4 3 3 3 3 3 3 4 5 4 5 5 4 3 3 3 3 3 3 2 2 2 5 6 7 8 8 9 9 9
1 1 0 1 2 2 2 2 2 2 2 2 2 3 3 2 2 2 2 2 2 2 2 3 3 3 4 4 3 4 4 2 2 2 2 5 5 6 7 8 8 8 9
1 1 1 1 2 2 2 2 2 2 2 2 2 2 3 2 2 2 2 2 2 2 2 3 3 3 3 3 3 4 3 3 3 3 2 5 5 6 6 6 7 7 7
1 1 1 1 1 2 2 2 2 2 2 2 2 2 2 2 2 2 2 2 2 1 2 2 3 3 2 2 3 3 3 3 3 3 3 4 6 6 5 6 6 7 7
2 1 1 1 2 3 2 2 2 2 2 2 2 2 2 2 3 2 2 2 2 1 2 2 3 3 2 3 3 3 3 3 3 3 3 3 3 5 6 5 6 6 6
2 1 1 0 1 2 2 2 2 2 2 1 1 1 2 2 3 3 2 2 2 2 2 2 2 2 2 2 2 2 2 2 3 3 3 3 3 3 4 7 6 5 4
2 2 1 0 1 2 2 2 2 2 2 1 1 1 1 2 3 3 2 2 2 2 2 2 2 2 2 2 2 2 2 2 2 2 3 3 3 3 2 4 6 6 4
1 1 2 1 1 2 2 2 2 2 1 1 1 1 1 2 3 3 2 2 2 2 2 3 3 2 2 2 2 2 1 1 1 2 1 2 2 3 3 3 3 3 5
1 1 2 2 1 2 2 2 2 2 1 1 1 1 1 2 2 3 2 2 2 2 3 4 3 3 2 1 2 2 1 1 2 1 1 1 2 2 3 3 2 2 2
2 2 2 2 2 2 2 2 2 2 1 1 1 1 1 2 2 2 3 2 2 2 3 3 3 2 1 1 2 2 1 1 2 1 1 1 1 1 2 2 2 2 2
2 2 2 2 2 2 2 2 2 1 1 1 1 1 1 2 2 2 3 3 2 3 3 3 3 4 3 1 1 2 3 2 1 1 1 1 1 1 0 0 1 1 1
2 2 2 2 1 1 2 3 4 3 2 2 2 1 1 2 2 2 3 3 3 2 3 3 2 2 4 3 1 1 1 3 2 1 1 1 1 1 1 1 1 1 0
2 1 1 1 1 1 2 3 4 3 2 1 1 2 1 1 2 2 2 3 3 3 3 3 2 2 2 3 2 1 1 1 1 2 1 1 2 1 1 1 1 1 1
1 1 1 0 1 1 2 3 4 4 3 3 2 2 2 1 1 2 2 3 3 3 3 3 3 2 2 2 2 2 2 2 2 2 2 2 2 2 2 1 1 1 1
Wind_Direction
258 270 229 146 123 116 113 108 105 104 102 101 100 100 99 100 98 95 93 91 89 88 86 87 87 86 83 82 81 79 76 74 74 72 72 75 78 79 78 75 76 78 84
214 228 194 142 126 122 116 112 107 104 102 102 102 100 99 98 99 98 96 94 91 90 88 88 88 87 86 83 82 80 79 76 72 69 67 69 75 80 81 78 80 86 88
132 178 177 137 125 123 120 112 107 104 102 103 102 102 101 99 97 97 95 93 92 90 89 89 89 88 87 86 84 82 80 77 72 66 62 59 72 82 84 81 85 89 89
119 129 149 125 125 124 120 115 110 107 103 102 101 101 101 99 96 98 97 94 92 90 90 89 90 90 88 88 86 85 82 78 70 62 56 53 66 83 86 84 86 89 88
103 91 122 118 121 124 120 116 112 110 107 104 99 97 98 97 95 94 94 94 94 92 92 92 90 92 91 90 89 88 84 78 68 60 54 54 64 83 85 85 84 86 88
101 85 118 117 116 118 121 119 113 110 107 106 100 94 94 96 94 91 91 92 92 94 95 94 92 92 91 91 91 89 84 77 65 59 56 57 68 85 86 87 85 86 87
104 81 101 116 116 115 113 117 113 108 104 102 101 97 93 92 90 88 82 89 95 96 97 95 93 92 90 91 92 89 84 75 68 62 60 63 79 86 86 87 87 88 89
93 89 93 114 115 115 113 109 106 105 101 98 95 95 94 93 89 85 81 82 93 97 98 96 93 94 91 91 91 88 83 74 70 66 62 67 84 89 88 86 86 89 90
73 77 76 82 106 114 109 106 101 95 97 95 89 86 86 88 87 85 80 81 85 92 96 97 94 93 91 90 87 85 78 70 62 61 62 67 82 89 91 89 89 91 93
66 66 71 72 76 90 101 100 96 93 91 91 88 81 78 75 75 77 75 82 82 83 91 94 95 92 90 89 84 79 72 65 58 57 55 76 85 91 92 92 94 95 95
63 53 67 83 79 81 88 93 94 91 88 88 84 80 77 68 65 61 64 74 78 77 85 88 88 88 85 81 78 75 67 60 58 53 55 81 91 96 95 94 96 100 101
122 62 69 96 95 84 81 80 77 76 76 76 75 73 73 71 70 73 72 69 73 72 79 85 83 80 72 67 67 64 59 57 58 44 62 82 96 101 99 99 98 95 95
187 146 91 120 118 111 100 86 78 76 71 74 75 74 76 71 70 68 71 61 61 62 67 77 73 63 62 64 65 59 55 55 51 35 50 74 93 101 104 106 102 97 94
141 194 152 106 130 125 115 108 104 96 87 84 82 82 88 84 71 68 72 68 58 56 65 70 76 70 68 63 67 66 54 48 41 31 40 62 87 99 105 108 106 102 99
178 251 212 138 139 132 119 113 110 108 106 103 94 87 91 100 95 86 79 77 73 68 77 78 79 76 73 65 61 61 55 46 38 32 29 44 68 85 94 104 108 106 102
219 244 230 165 152 130 129 133 129 121 120 118 111 101 104 110 110 104 102 89 79 70 82 93 94 87 76 74 64 55 55 48 39 36 33 34 46 60 77 94 104 104 102
223 226 228 190 150 144 142 138 126 122 125 122 125 121 114 113 119 117 110 102 90 82 92 97 93 90 84 72 62 47 49 47 41 38 40 37 31 38 53 73 88 97 101
198 193 208 221 152 152 146 142 131 128 130 120 126 138 133 124 120 123 113 108 113 110 104 109 107 105 95 81 70 47 39 39 35 44 48 44 39 31 37 50 55 76 90
196 182 180 198 173 158 152 141 131 129 121 121 119 127 144 134 127 131 127 117 115 119 113 113 103 112 115 95 82 64 44 36 20 43 50 45 41 40 36 39 41 45 64
214 179 178 199 188 148 146 137 126 114 113 109 114 125 125 137 135 136 127 117 117 117 116 119 115 92 115 115 90 69 50 36 33 43 51 47 42 41 39 37 31 28 42
210 192 187 202 206 146 154 163 162 174 161 143 139 124 136 131 132 144 138 134 132 131 139 137 129 117 96 102 96 75 41 48 53 27 26 54 40 36 42 38 30 28 17
205 222 210 210 204 182 184 175 167 162 165 178 174 157 154 152 147 138 134 145 147 138 127 135 130 136 123 102 119 122 71 358 5 7 10 57 29 36 40 31 34 28 21
244 227 226 219 208 195 179 147 131 117 109 146 174 182 185 171 167 150 146 145 142 147 157 160 162 153 158 165 102 135 145 196 293 322 340 30 5 30 346 354 41 46 24
265 257 240 212 200 193 173 164 166 175 187 195 189 187 185 171 171 163 153 156 157 155 157 170 169 169 160 169 176 46 110 144 153 260 310 332 332 304 250 241 217 179 127
271 269 267 230 222 214 187 181 179 187 194 183 172 173 179 182 177 174 169 167 164 167 173 176 171 170 171 172 166 148 128 74 121 164 235 292 317 289 268 230 206 194 186
326 328 323 12 279 235 207 193 188 190 186 177 181 190 197 195 186 188 187 180 176 179 181 184 184 183 190 180 175 166 160 163 177 170 196 227 267 292 293 241 209 200 192